ATHENA EPIC (64871 NORAD) Tracking and Keplerian Element Data

This shows tracking and keplerian element data for the satellite.

Feedback or suggestion? Click here.




ElementValue
Catalog64871
NameATHENA EPIC
Epoch Orbit2228
Epoch Day354.14513746
Epoch Year2025
RAAN57.047
Inclination97.6929
Eccentricity0.0007715
Argument of Perigee117.8179
Mean Anonmoly242.3824
Mean Motion14.93274592
Decay Rate1.636E-05
L11 64871U 25154C 25354.14513746 .00001636 00000+0 16160-3 0 9995
L22 64871 97.6929 57.0470 0007715 117.8179 242.3824 14.93274592 22282



Live tracking and technical data element details for ATHENA EPIC (NORAD 64871). ATHENA EPIC can be tracked NOW for your location showing map with azimuth and elevation plus other details from your city location.







IsCatalogInMostPopularTable: catalog: 64871, numindb: 3
Update: records affected: 1



GetName: 64871 ATHENA EPIC

Hit Count: updated at: Wed, 15 Apr 2026 00:56:28 GMT